MDT,Max TemperatureF,Mean TemperatureF,Min TemperatureF,Max Dew PointF,MeanDew PointF,Min DewpointF,Max Humidity, Mean Humidity, Min Humidity, Max Sea Level PressureIn, Mean Sea Level PressureIn, Min Sea Level PressureIn, Max VisibilityMiles, Mean VisibilityMiles, Min VisibilityMiles, Max Wind SpeedMPH, Mean Wind SpeedMPH, Max Gust SpeedMPH,PrecipitationIn, CloudCover, Events, WindDirDegrees
2013-10-1,71,60,50,42,32,26,71,37,23,30.20,30.13,30.04,10,10,10,18,10,23,0.00,0,,113
2013-10-2,72,58,44,43,35,27,84,45,20,30.10,30.05,29.98,10,10,10,16,8,22,0.00,0,,8
2013-10-3,70,56,43,48,36,27,99,52,20,29.98,29.88,29.80,10,10,1,17,8,25,0.00,1,,53
2013-10-4,46,36,23,47,31,19,99,78,57,30.19,30.00,29.80,10,10,1,29,16,43,0.00,4,Rain-Snow-Thunderstorm,5
2013-10-5,55,40,26,22,13,1,82,41,12,30.27,30.21,30.16,10,10,10,23,8,46,0.00,0,,323
2013-10-6,65,48,31,31,15,2,61,29,15,30.36,30.32,30.26,10,10,10,13,7,,0.00,0,,310
2013-10-7,72,53,34,25,22,18,63,32,13,30.34,30.22,30.09,10,10,10,9,4,,0.00,0,,215
2013-10-8,74,60,46,27,20,14,46,24,11,30.07,29.96,29.88,10,10,10,22,9,30,0.00,0,,274
2013-10-9,70,58,45,39,29,24,76,38,19,30.03,29.99,29.92,10,10,10,15,11,23,0.00,1,,11
2013-10-10,65,52,39,41,36,24,88,65,33,30.02,29.82,29.63,10,10,5,24,10,33,0.00,2,Rain,240
2013-10-11,62,50,41,41,27,18,98,49,24,30.14,29.88,29.65,10,10,10,24,13,34,0.00,4,Rain,280
2013-10-12,51,44,35,41,36,31,99,80,53,30.26,30.20,30.14,10,9,0,21,10,25,0.00,6,Rain,172
2013-10-13,62,47,32,48,38,31,98,77,40,30.24,30.16,30.03,10,10,5,23,7,32,0.00,2,Rain-Thunderstorm,142
2013-10-14,58,45,32,45,35,21,100,74,25,30.16,29.99,29.90,10,8,0,24,8,29,0.00,3,Fog-Rain-Thunderstorm,351
2013-10-15,37,32,28,28,24,20,85,71,56,30.28,30.22,30.17,10,10,10,22,12,31,0.00,5,,16
2013-10-16,51,39,28,32,27,15,100,76,26,30.22,30.11,30.04,10,7,0,13,7,21,0.00,5,Fog-Snow,251
2013-10-17,51,39,28,30,25,21,92,62,32,30.14,30.08,30.02,10,10,10,14,5,22,0.00,2,,62
2013-10-18,40,34,27,31,26,20,96,78,48,30.19,30.12,30.04,10,8,1,16,8,22,0.00,7,Snow,25
2013-10-19,58,45,32,27,23,19,69,49,22,30.04,30.02,30.00,10,10,10,10,6,,0.00,0,,277
2013-10-20,49,40,30,35,26,16,96,61,31,30.16,30.04,29.97,10,10,2,17,10,24,0.00,3,Rain-Snow,354
2013-10-21,53,40,26,30,24,16,96,63,24,30.24,30.19,30.16,10,10,10,13,6,21,0.00,0,,303
2013-10-22,61,48,35,28,25,21,70,45,23,30.29,30.24,30.21,10,10,10,15,10,17,0.00,0,,303
2013-10-23,65,49,34,31,26,20,73,47,20,30.30,30.24,30.20,10,10,10,13,7,23,0.00,0,,357
2013-10-24,55,42,30,34,30,26,90,66,41,30.32,30.29,30.27,10,10,10,8,4,,0.00,0,,198
2013-10-25,66,48,30,37,28,20,96,53,19,30.30,30.24,30.18,10,10,10,18,5,25,0.00,2,,3
2013-10-26,59,48,37,32,29,27,79,53,31,30.42,30.34,30.25,10,10,10,20,9,32,0.00,0,,313
2013-10-27,66,50,34,30,21,12,77,37,13,30.24,30.06,29.94,10,10,3,20,9,26,0.00,0,,305
2013-10-28,47,38,30,32,28,19,100,66,31,30.03,29.98,29.94,10,8,0,21,9,30,0.00,2,Fog,7
2013-10-29,53,40,27,33,29,25,100,76,33,30.01,29.95,29.90,10,6,0,15,7,21,0.00,5,Fog-Rain,214
2013-10-30,53,40,27,35,27,11,100,72,19,29.91,29.87,29.80,10,7,0,20,9,28,0.00,4,Fog-Snow,81
2013-10-31,56,41,26,22,15,9,70,39,15,29.95,29.87,29.82,10,10,10,21,10,29,0.00,0,,303